Clayton Lake, ME

3:48 PM EST on January 17, 2018 (GMT -0500)
Clayton Lake

Weather History for K40B - June, 2014

Change the Weather History Date:

Tuesday, June 17, 2014

  Actual Average Record
Temperature  
Mean Temperature 64 °F -  
Max Temperature 78 °F 70 °F 81 °F (2011)
Min Temperature 52 °F 45 °F 35 °F (2016)
Growing Degree Days 14 (Base 50)    
Moisture  
Dew Point 53 °F    
Average Humidity 67    
Maximum Humidity 97    
Minimum Humidity 40    
Precipitation  
Precipitation 0.03 in - - ()
Sea Level Pressure  
Sea Level Pressure 29.95 in    
Wind  
Wind Speed 1 mph (SSW)    
Max Wind Speed 9 mph    
Max Gust Speed 15 mph    
Averages and records for this station are not official NWS values.
T = Trace of Precipitation, MM = Missing Value Source: NWS Daily Summary

Daily Weather History Graph

Daily Weather History Graph

Search for Another Location

Airport or City:

Trip Planner

Search our weather history database for the weather conditions in past years. The results will help you decide how hot, cold, wet, or windy it might be!

Date:

Astronomy

Jun. 17, 2014 Rise Set
Actual Time 4:44 AM EDT 8:34 PM EDT
Civil Twilight 4:04 AM EDT 9:13 PM EDT
Nautical Twilight 3:11 AM EDT 10:06 PM EDT
Astronomical Twilight 1:53 AM EDT 11:24 PM EDT
Moon 11:41 PM EDT 10:11 AM EDT
Length of Visible Light 17h 08m
Length of Day
15h 49m
Waning Gibbous, 73% of the Moon is Illuminated
Jun 17
Waning Gibbous
Jun 19
Last Quarter
Jun 27
New
Jul 5
First Quarter
Jul 12
Full

Hourly Weather History & Observations

Time (EDT) Temp. Dew Point Humidity Pressure Visibility Wind Dir Wind Speed Gust Speed Precip Events Conditions
12:16 AM 54.7 °F 49.8 °F 84% 30.05 in - Calm Calm - N/A   Unknown
1:16 AM 54.0 °F 50.0 °F 86% 30.04 in - Calm Calm - N/A   Unknown
2:16 AM 54.0 °F 49.6 °F 85% 30.04 in - Calm Calm - N/A   Unknown
3:16 AM 53.2 °F 51.1 °F 92% 30.04 in - Calm Calm - 0.00 in   Unknown
4:16 AM 52.5 °F 51.6 °F 97% 30.03 in - Calm Calm - 0.02 in   Unknown
5:16 AM 52.3 °F 51.6 °F 97% 30.03 in - Calm Calm - N/A   Unknown
6:16 AM 53.4 °F 52.5 °F 97% 30.03 in - Calm Calm - N/A   Unknown
7:16 AM 59.5 °F 54.1 °F 82% 30.04 in - Calm Calm - 0.01 in   Unknown
8:16 AM 63.1 °F 50.0 °F 62% 30.04 in - Variable 5.8 mph - N/A   Unknown
9:16 AM 68.0 °F 50.5 °F 54% 30.02 in - Calm Calm - N/A   Unknown
10:16 AM 71.8 °F 50.4 °F 47% 30.01 in - Calm Calm - N/A   Unknown
11:16 AM 73.9 °F 50.2 °F 43% 30.00 in - Variable 3.5 mph - N/A   Unknown
12:16 PM 75.2 °F 50.0 °F 41% 29.98 in - Variable 3.5 mph - N/A   Unknown
1:16 PM 75.2 °F 55.2 °F 50% 29.96 in - SSW 9.2 mph 15.0 mph N/A   Unknown
2:16 PM 76.3 °F 52.3 °F 43% 29.94 in - Variable 6.9 mph - N/A   Unknown
3:16 PM 77.5 °F 53.4 °F 43% 29.91 in - Variable 6.9 mph - N/A   Unknown
4:16 PM 77.4 °F 53.2 °F 43% 29.89 in - Variable 5.8 mph 13.8 mph N/A   Unknown
5:16 PM 77.4 °F 51.3 °F 40% 29.86 in - Variable 4.6 mph - N/A   Unknown
6:16 PM 75.4 °F 53.2 °F 46% 29.86 in - Variable 3.5 mph 11.5 mph N/A   Unknown
7:16 PM 71.8 °F 59.0 °F 64% 29.84 in - Calm Calm - N/A   Unknown
8:16 PM 68.2 °F 59.2 °F 73% 29.84 in - Calm Calm - N/A   Unknown
9:16 PM 64.8 °F 57.7 °F 78% 29.83 in - Calm Calm - N/A   Unknown
10:16 PM 63.0 °F 57.7 °F 83% 29.83 in - Calm Calm - 0.00 in   Unknown
11:16 PM 60.6 °F 56.7 °F 87% 29.80 in - Calm Calm - N/A   Unknown